Location: Heidgraben
(53.7081°N, 9.6576°E)
Time: 21:07:06
(UTC+00:00)

Cosmos 2056 Rocket - Pass Details

Date: 05 July 2020
Orbit: 741 x 801 km, 74.0° (Epoch: 14 August)

Event Time Altitude Azimuth Distance (km) Brightness Sun altitude
Rises 22:56:51 0° 329° (NNW) 3,303 8.1 -13.4°
Reaches altitude 10° 22:59:22 10° 322° (NW) 2,376 7.0 -13.4°
Maximum altitude 23:04:21 39° 255° (WSW) 1,190 4.4 -13.5°
Enters shadow 23:07:56 18° 196° (SSW) 1,896 5.0 -13.5°
